When you browse on this site, cookies collect data to enhance your experience and personalize the content and advertising you see.
Visit our Privacy Policy to learn more. By continuing to use the site, you agree to this use of cookies and data.
  • Em Portugal
  • Lista de países
  • Para 7 dias
  • Temperatura da água
  • Mapa do tempo
  • Widgets de tempo
  • user-avatar
    Iniciar Sessão

    Previsão horária em Pakchongo

    Hoje, 2 Abril, Quinta-feira

    Tempo Temperatura Precipitação Vento Pressão Humidade
    00:00 +29°C° 0 mm 2 m/s 726 mmHg 45%
    01:00 +28°C° 0 mm 2 m/s 725 mmHg 47%
    02:00 +27°C° 0 mm 1 m/s 725 mmHg 52%
    03:00 +27°C° 0 mm 1 m/s 725 mmHg 56%
    04:00 +26°C° 0 mm 1 m/s 725 mmHg 61%
    05:00 +27°C° 0 mm 1 m/s 725 mmHg 61%
    06:00 +27°C° 0 mm 1 m/s 726 mmHg 61%
    07:00 +28°C° 0 mm 1 m/s 726 mmHg 61%
    08:00 +30°C° 0 mm 1 m/s 727 mmHg 53%
    09:00 +34°C° 0 mm 2 m/s 728 mmHg 46%
    10:00 +37°C° 0 mm 2 m/s 729 mmHg 38%
    11:00 +37°C° 0 mm 2 m/s 728 mmHg 37%
    12:00 +38°C° 0 mm 3 m/s 727 mmHg 36%
    13:00 +38°C° 0 mm 3 m/s 726 mmHg 36%
    14:00 +38°C° 0.1 mm 2 m/s 726 mmHg 37%
    15:00 +37°C° 0.1 mm 2 m/s 725 mmHg 38%
    16:00 +36°C° 0.1 mm 1 m/s 724 mmHg 39%
    17:00 +36°C° 0.1 mm 2 m/s 724 mmHg 43%
    18:00 +34°C° 0.1 mm 2 m/s 724 mmHg 47%
    19:00 +32°C° 0.1 mm 2 m/s 724 mmHg 51%
    20:00 +31°C° 0.1 mm 2 m/s 725 mmHg 56%
    21:00 +30°C° 0.1 mm 2 m/s 726 mmHg 62%
    22:00 +29°C° 0.1 mm 2 m/s 727 mmHg 68%
    23:00 +29°C° 0 mm 2 m/s 726 mmHg 70%

    Amanhã, 3 Abril, Sexta-feira

    Tempo Temperatura Precipitação Vento Pressão Humidade
    00:00 +28°C° 0 mm 2 m/s 726 mmHg 73%
    01:00 +28°C° 0 mm 1 m/s 726 mmHg 75%
    02:00 +27°C° 0 mm 1 m/s 726 mmHg 76%
    03:00 +27°C° 0 mm 1 m/s 726 mmHg 77%
    04:00 +27°C° 0 mm 1 m/s 726 mmHg 77%
    05:00 +27°C° 0 mm 1 m/s 726 mmHg 76%
    06:00 +27°C° 0 mm 1 m/s 726 mmHg 75%
    07:00 +27°C° 0 mm 1 m/s 727 mmHg 74%
    08:00 +30°C° 0.1 mm 1 m/s 727 mmHg 64%
    09:00 +32°C° 0.1 mm 2 m/s 728 mmHg 54%
    10:00 +36°C° 0.1 mm 2 m/s 729 mmHg 44%
    11:00 +36°C° 0.1 mm 2 m/s 728 mmHg 43%
    12:00 +37°C° 0.1 mm 2 m/s 728 mmHg 42%
    13:00 +36°C° 0.1 mm 1 m/s 727 mmHg 40%
    14:00 +36°C° 0.2 mm 1 m/s 726 mmHg 42%
    15:00 +35°C° 0.2 mm 1 m/s 726 mmHg 43%
    16:00 +36°C° 0.2 mm 2 m/s 725 mmHg 44%
    17:00 +34°C° 0.3 mm 2 m/s 725 mmHg 50%
    18:00 +32°C° 0.3 mm 2 m/s 725 mmHg 55%
    19:00 +31°C° 0.3 mm 2 m/s 726 mmHg 61%
    20:00 +30°C° 0.1 mm 2 m/s 726 mmHg 64%
    21:00 +30°C° 0.1 mm 2 m/s 727 mmHg 67%
    22:00 +29°C° 0.1 mm 2 m/s 727 mmHg 70%
    23:00 +29°C° 0.1 mm 1 m/s 727 mmHg 73%

    Depois de amanhã, 4 Abril, Sábado

    Tempo Temperatura Precipitação Vento Pressão Humidade
    00:00 +28°C° 0.1 mm 1 m/s 727 mmHg 75%
    01:00 +28°C° 0.1 mm 1 m/s 727 mmHg 78%
    02:00 +27°C° 0.1 mm 1 m/s 726 mmHg 81%
    03:00 +27°C° 0.1 mm 1 m/s 726 mmHg 83%
    04:00 +26°C° 0.1 mm 1 m/s 725 mmHg 86%
    05:00 +27°C° 0 mm 1 m/s 726 mmHg 83%
    06:00 +27°C° 0 mm 1 m/s 727 mmHg 80%
    07:00 +28°C° 0 mm 1 m/s 727 mmHg 77%
    08:00 +30°C° 0 mm 1 m/s 727 mmHg 65%
    09:00 +33°C° 0 mm 1 m/s 728 mmHg 53%
    10:00 +36°C° 0 mm 2 m/s 728 mmHg 41%
    11:00 +36°C° 0 mm 1 m/s 728 mmHg 39%
    12:00 +37°C° 0 mm 1 m/s 727 mmHg 37%
    13:00 +37°C° 0 mm 1 m/s 727 mmHg 35%
    14:00 +37°C° 0.1 mm 1 m/s 726 mmHg 36%
    15:00 +36°C° 0.1 mm 1 m/s 725 mmHg 38%
    16:00 +36°C° 0.1 mm 1 m/s 724 mmHg 40%
    17:00 +35°C° 0.3 mm 2 m/s 725 mmHg 45%
    18:00 +34°C° 0.3 mm 2 m/s 725 mmHg 50%
    19:00 +31°C° 0.3 mm 2 m/s 725 mmHg 55%
    20:00 +30°C° 0.2 mm 2 m/s 726 mmHg 58%
    21:00 +30°C° 0.2 mm 2 m/s 726 mmHg 61%
    22:00 +29°C° 0.2 mm 2 m/s 727 mmHg 63%
    23:00 +29°C° 0 mm 2 m/s 727 mmHg 66%

    5 Abril, Domingo

    Tempo Temperatura Precipitação Vento Pressão Humidade
    00:00 +28°C° 0 mm 1 m/s 727 mmHg 69%
    01:00 +28°C° 0 mm 1 m/s 726 mmHg 72%
    02:00 +28°C° 0.1 mm 1 m/s 726 mmHg 76%
    03:00 +27°C° 0.1 mm 1 m/s 726 mmHg 80%
    04:00 +26°C° 0.1 mm 1 m/s 726 mmHg 83%
    05:00 +27°C° 0 mm 1 m/s 726 mmHg 82%
    06:00 +27°C° 0 mm 1 m/s 726 mmHg 81%
    07:00 +28°C° 0 mm 1 m/s 727 mmHg 80%
    08:00 +30°C° 0.2 mm 1 m/s 727 mmHg 68%
    09:00 +32°C° 0.2 mm 2 m/s 728 mmHg 56%
    10:00 +36°C° 0.2 mm 2 m/s 729 mmHg 44%
    11:00 +36°C° 0.2 mm 2 m/s 728 mmHg 43%
    12:00 +37°C° 0.2 mm 2 m/s 727 mmHg 42%
    13:00 +37°C° 0.2 mm 2 m/s 727 mmHg 41%
    14:00 +36°C° 0.3 mm 2 m/s 726 mmHg 43%
    15:00 +36°C° 0.3 mm 2 m/s 725 mmHg 46%
    16:00 +35°C° 0.3 mm 2 m/s 725 mmHg 49%
    17:00 +34°C° 0 mm 2 m/s 725 mmHg 53%
    18:00 +32°C° 0 mm 2 m/s 725 mmHg 58%
    19:00 +30°C° 0 mm 2 m/s 725 mmHg 62%
    20:00 +30°C° 0 mm 2 m/s 726 mmHg 65%
    21:00 +29°C° 0 mm 2 m/s 726 mmHg 67%
    22:00 +29°C° 0 mm 1 m/s 727 mmHg 69%
    23:00 +28°C° 0 mm 2 m/s 727 mmHg 73%

    6 Abril, Segunda-feira

    Tempo Temperatura Precipitação Vento Pressão Humidade
    00:00 +28°C° 0 mm 2 m/s 726 mmHg 77%
    01:00 +27°C° 0 mm 2 m/s 726 mmHg 81%
    02:00 +27°C° 0.1 mm 2 m/s 726 mmHg 83%
    03:00 +26°C° 0.1 mm 1 m/s 726 mmHg 86%
    04:00 +26°C° 0.1 mm 1 m/s 725 mmHg 89%
    05:00 +26°C° 0 mm 1 m/s 726 mmHg 85%
    06:00 +27°C° 0 mm 1 m/s 726 mmHg 81%
    07:00 +27°C° 0 mm 1 m/s 727 mmHg 77%
    08:00 +30°C° 0 mm 2 m/s 727 mmHg 65%
    09:00 +34°C° 0 mm 3 m/s 728 mmHg 53%
    10:00 +37°C° 0 mm 3 m/s 728 mmHg 40%
    11:00 +37°C° 0.1 mm 3 m/s 727 mmHg 40%
    12:00 +37°C° 0.1 mm 4 m/s 727 mmHg 39%
    13:00 +38°C° 0.1 mm 4 m/s 726 mmHg 38%
    14:00 +37°C° 0 mm 4 m/s 725 mmHg 38%
    15:00 +37°C° 0 mm 4 m/s 724 mmHg 39%
    16:00 +37°C° 0 mm 4 m/s 723 mmHg 39%
    17:00 +35°C° 0 mm 4 m/s 724 mmHg 43%
    18:00 +34°C° 0 mm 3 m/s 724 mmHg 48%
    19:00 +31°C° 0 mm 3 m/s 724 mmHg 52%
    20:00 +30°C° 0 mm 3 m/s 724 mmHg 59%
    21:00 +29°C° 0 mm 3 m/s 725 mmHg 65%
    22:00 +28°C° 0 mm 2 m/s 725 mmHg 71%
    23:00 +28°C° 0 mm 2 m/s 725 mmHg 74%

    7 Abril, Terça-feira

    Tempo Temperatura Precipitação Vento Pressão Humidade
    00:00 +27°C° 0 mm 2 m/s 725 mmHg 77%
    01:00 +27°C° 0 mm 1 m/s 725 mmHg 80%
    02:00 +26°C° 0 mm 1 m/s 725 mmHg 81%
    03:00 +26°C° 0 mm 1 m/s 725 mmHg 81%
    04:00 +26°C° 0 mm 1 m/s 724 mmHg 82%
    05:00 +26°C° 0 mm 1 m/s 725 mmHg 80%
    06:00 +27°C° 0 mm 1 m/s 725 mmHg 78%
    07:00 +27°C° 0 mm 1 m/s 726 mmHg 76%
    08:00 +30°C° 0 mm 2 m/s 726 mmHg 62%
    09:00 +34°C° 0 mm 3 m/s 727 mmHg 48%
    10:00 +37°C° 0 mm 3 m/s 727 mmHg 34%
    11:00 +38°C° 0 mm 3 m/s 727 mmHg 33%
    12:00 +40°C° 0 mm 4 m/s 726 mmHg 32%
    13:00 +40°C° 0 mm 4 m/s 725 mmHg 30%
    14:00 +40°C° 0 mm 4 m/s 724 mmHg 31%
    15:00 +40°C° 0 mm 4 m/s 724 mmHg 32%
    16:00 +38°C° 0 mm 4 m/s 723 mmHg 32%
    17:00 +37°C° 0 mm 4 m/s 723 mmHg 37%
    18:00 +35°C° 0 mm 4 m/s 723 mmHg 42%
    19:00 +33°C° 0 mm 4 m/s 723 mmHg 46%
    20:00 +32°C° 0 mm 4 m/s 724 mmHg 52%
    21:00 +30°C° 0 mm 3 m/s 725 mmHg 59%
    22:00 +29°C° 0 mm 2 m/s 725 mmHg 65%
    23:00 +28°C° 0 mm 2 m/s 725 mmHg 69%
    Mostrar mais